Regional Weather Roundup
Issued by NWS Sterling, VA

Home | Current Version | Previous Version | Text Only | Print | Product List | Glossary Off
Versions: 1 2 3 4 5 6 7 8 9 10 11 12 13 14 15 16 17 18 19 20 21 22 23 24 25 26 27

000
ASUS41 KLWX 191211
RWRLWX

REGIONAL WEATHER ROUNDUP
NATIONAL WEATHER SERVICE BALTIMORE MD/WASHINGTON DC
800 AM EDT TUE SEP 19 2017

Note: "FAIR" indicates few or no clouds below 12,000 feet
with no significant weather and/or obstructions to visibility.
 TC=TEMPERATURE CELSIUS

 * =Non NWS site. Station does not report precipitation (e.g. rain,
    snow, etc.), thunder, or fog.

DCZ001-MDZ009-015-VAZ040>042-051-053>054-191300-
WASHINGTON METRO

CITY           SKY/WX    TMP DP  RH WIND       PRES   REMARKS
WASHINGTON NAT CLOUDY    70  67  90 N10       29.99F
DULLES         PTSUNNY   67  65  93 N12       30.02R
ANDREWS AFB    MOSUNNY   68  65  90 N10       29.97F
FT BELVOIR     CLOUDY    69  64  85 NW8       29.99S
QUANTICO       PTSUNNY   69  66  90 N13       30.00S
COLLEGE PARK*  PTSUNNY   68  64  88 N5        29.99S
LEESBURG*      CLOUDY    68  68 100 NE6       30.04R
MANASSAS*      CLOUDY    68  65  90 N12       30.01S
GAITHERSBURG*  CLOUDY    66  64  93 VRB3      30.02F

$$

MDZ006>007-011-014-191300-
BALTIMORE METRO

CITY           SKY/WX    TMP DP  RH WIND       PRES   REMARKS
BWI AIRPORT    PTSUNNY   69  67  93 VRB5      29.99S
MD SCIENCE CTR   N/A     71  66  84 MISG      29.99S
MARTIN STATE   SUNNY     72  70  94 NW6       29.99F
ANNAPOLIS      CLOUDY    73  71  93 N9        29.97S
FORT MEADE*    CLOUDY    68  64  88 N3        30.01F

$$

MDZ012-015-019>023-191300-
MARYLAND EASTERN SHORE

CITY           SKY/WX    TMP DP  RH WIND       PRES   REMARKS
OCEAN CITY     HVY RAIN  71  69  93 NE20G29   29.87S FOG
SALISBURY      CLOUDY    71  69  93 N14       29.89F
CAMBRIDGE*     PTSUNNY   72  68  88 N12       29.93F
EASTON*        MOSUNNY   72  66  83 N10       29.99S

$$

MDZ017>025-191300-
SOUTHERN MARYLAND

CITY           SKY/WX    TMP DP  RH WIND       PRES   REMARKS
PATUXENT RIVER PTSUNNY   72  68  87 N15       29.94S
ST INIGOES     MOSUNNY   72  68  87 VRB6      29.93
LEONARDTOWN*   PTSUNNY   70  66  88 N3        29.96S

$$

MDZ003>005-191300-
NORTH CENTRAL MARYLAND

CITY           SKY/WX    TMP DP  RH WIND       PRES   REMARKS
FREDERICK*     PTSUNNY   70  70 100 N5        30.06S
HAGERSTOWN APT CLOUDY    67  64  90 N6        30.05S FOG
WESTMINSTER*   CLOUDY    66  64  94 N7        30.04S FOG

$$

MDZ501>502-191300-
WESTERN MARYLAND

CITY           SKY/WX    TMP DP  RH WIND       PRES   REMARKS
OAKLAND*       CLOUDY    55  55 100 SE9       30.09R
CUMBERLAND*    CLOUDY    64  64 100 CALM      30.10S

$$

VAZ025>031-191300-
SHENANDOAH VALLEY

CITY           SKY/WX    TMP DP  RH WIND       PRES   REMARKS
WINCHESTER*    SUNNY     63  61  94 CALM      30.05S FOG
FRONT ROYAL*   CLOUDY    64  64 100 CALM      30.04S
LURAY*         CLOUDY    64  64 100 NE3       30.05S FOG
NEW MARKET*    CLOUDY    63  62  97 CALM      30.05S
STAUNTON*      MOSUNNY   62  61  97 NE3       30.08S FOG
WAYNESBORO*    CLOUDY    64  64 100 CALM      30.07S

$$

WVZ021-048>050-054>055-191300-
EASTERN WEST VIRGINIA PANHANDLE

CITY           SKY/WX    TMP DP  RH WIND       PRES   REMARKS
MARTINSBURG    PTSUNNY   65  62  90 N5        30.04S FOG
PETERSBURG*    CLOUDY    67  65  94 CALM      30.07S FOG

$$

VAZ036>039-050-191300-
CENTRAL FOOTHILLS

CITY           SKY/WX    TMP DP  RH WIND       PRES   REMARKS
CHARLOTTESVILL SUNNY     67  65  93 NW3       30.02S
CULPEPER*      CLOUDY    68  66  92 N10       30.03R
ORANGE*        PTSUNNY   64  63  94 CALM      30.01S
GORDONSVILLE*  MOSUNNY   67  65  96 N3        30.01S
WARRENTON*     CLOUDY    68  63  82 N9        30.01S

$$

VAZ055>057-191300-
NORTH AND CENTRAL PIEDMONT

CITY           SKY/WX    TMP DP  RH WIND       PRES   REMARKS
FREDERICKSBRG* CLOUDY    68  68 100 N6        29.98S
STAFFORD*      PTSUNNY   66  66 100 N9        30.03F

$$

NCZ024-NYZ072-PAZ021-071-VAZ022-071-191300-
OTHER REGIONAL OBSERVATIONS

CITY           SKY/WX    TMP DP  RH WIND       PRES   REMARKS
NEW YORK CITY  CLOUDY    72  65  78 NE10      30.03F
PHILADELPHIA   CLOUDY    72  66  81 N21G26    29.98S
PITTSBURGH     CLOUDY    64  63  96 CALM        N/A
ROANOKE        CLOUDY    64  63  96 CALM      30.08R
RICHMOND       CLOUDY    68  66  93 N14       29.96R
RALEIGH        MOSUNNY   67  65  93 VRB5      29.99S

$$

ANZ530>537-191300-
MARINE OBSERVATIONS

STATION/POSITION TIME  TEMP    WIND        PRES
                       AIR SEA DIR/SP/G
                 (UTC) (F)     (DEG/KT/KT) (MB)
THOMAS PT LIGHT  1200   72 75   20/ 22/ 24   N/A
BALT KEY BRIDGE  1142   70      10/ 11/ 13 1015.1F
COVE POINT       1142   72      30/ 22/ 25 1014.6S
LEWISETTA        1142   72 76   20/ 13/ 18 1013.3S
SOLOMONS ISLAND  1142   72 76   10/ 15/ 19 1013.5S
PINEY POINT      1142           20/ 12/ 17   N/A

$$





USA.gov is the U.S. government's official web portal to all federal, state and local government web resources and services.